Time,TemperatureF,DewpointF,PressureIn,WindDirection,WindDirectionDegrees,WindSpeedMPH,WindSpeedGustMPH,Humidity,HourlyPrecipIn,Conditions,Clouds,dailyrainin,SoftwareType,DateUTC
2013-03-25 00:00:00,30.8,23.6,29.72,NE,45,1.0,-999.0,74,0.00,,,0.00,MetarLogicWeatherSta,2013-03-25 04:00:00,
2013-03-25 00:05:00,30.7,23.5,29.72,NE,45,1.0,-999.0,74,0.00,,,0.00,MetarLogicWeatherSta,2013-03-25 04:05:00,
2013-03-25 00:11:00,30.8,23.6,29.71,NW,315,1.0,-999.0,74,0.00,,,0.00,MetarLogicWeatherSta,2013-03-25 04:11:00,
2013-03-25 00:16:00,30.7,23.6,29.71,ENE,67,3.0,-999.0,74,0.00,,,0.00,MetarLogicWeatherSta,2013-03-25 04:16:00,
2013-03-25 00:21:00,30.6,23.6,29.71,SSE,157,0.0,-999.0,75,0.00,,,0.00,MetarLogicWeatherSta,2013-03-25 04:21:00,
2013-03-25 00:26:00,30.6,23.6,29.71,NE,45,1.0,-999.0,74,0.00,,,0.00,MetarLogicWeatherSta,2013-03-25 04:26:00,
2013-03-25 00:31:00,30.4,23.4,29.71,NE,45,4.0,-999.0,74,0.00,,,0.00,MetarLogicWeatherSta,2013-03-25 04:31:00,
2013-03-25 00:36:00,30.4,23.2,29.71,ESE,112,1.0,-999.0,74,0.00,,,0.00,MetarLogicWeatherSta,2013-03-25 04:36:00,
2013-03-25 00:41:00,30.3,23.2,29.71,SSE,157,0.0,-999.0,74,0.00,,,0.00,MetarLogicWeatherSta,2013-03-25 04:41:00,
2013-03-25 00:46:00,30.2,23.1,29.70,SE,135,0.0,-999.0,74,0.00,,,0.00,MetarLogicWeatherSta,2013-03-25 04:46:00,
2013-03-25 00:51:00,30.1,23.0,29.70,ESE,112,0.0,-999.0,74,0.00,,,0.00,MetarLogicWeatherSta,2013-03-25 04:51:00,
2013-03-25 00:56:00,30.0,23.3,29.69,SE,135,0.0,-999.0,75,0.00,,,0.00,MetarLogicWeatherSta,2013-03-25 04:56:00,
2013-03-25 01:01:00,29.9,23.1,29.69,SE,135,0.0,-999.0,75,0.00,,,0.00,MetarLogicWeatherSta,2013-03-25 05:01:00,
2013-03-25 01:06:00,29.8,22.9,29.69,SE,135,0.0,-999.0,75,0.00,,,0.00,MetarLogicWeatherSta,2013-03-25 05:06:00,
2013-03-25 01:11:00,29.8,23.0,29.69,SE,135,0.0,-999.0,75,0.00,,,0.00,MetarLogicWeatherSta,2013-03-25 05:11:00,
2013-03-25 01:17:00,29.7,22.8,29.69,SE,133,0.3,3.0,75,0.00,,,0.00,MetarLogicWeatherSta,2013-03-25 05:17:00,
2013-03-25 01:22:00,29.6,23.0,29.69,East,90,1.0,-999.0,76,0.00,,,0.00,MetarLogicWeatherSta,2013-03-25 05:22:00,
2013-03-25 01:27:00,29.7,23.0,29.68,SE,135,0.0,-999.0,75,0.00,,,0.00,MetarLogicWeatherSta,2013-03-25 05:27:00,
2013-03-25 01:32:00,29.5,22.9,29.68,SE,135,1.0,-999.0,76,0.00,,,0.00,MetarLogicWeatherSta,2013-03-25 05:32:00,
2013-03-25 01:37:00,29.5,22.7,29.68,SE,135,0.0,-999.0,75,0.00,,,0.00,MetarLogicWeatherSta,2013-03-25 05:37:00,
2013-03-25 01:42:00,29.2,22.5,29.68,SE,135,0.0,-999.0,75,0.00,,,0.00,MetarLogicWeatherSta,2013-03-25 05:42:00,
2013-03-25 01:47:00,29.1,22.5,29.68,SSE,157,0.0,-999.0,76,0.00,,,0.00,MetarLogicWeatherSta,2013-03-25 05:47:00,
2013-03-25 01:52:00,29.0,22.3,29.68,SE,135,0.0,-999.0,75,0.00,,,0.00,MetarLogicWeatherSta,2013-03-25 05:52:00,
2013-03-25 01:57:00,28.9,22.4,29.68,SE,135,0.0,-999.0,76,0.00,,,0.00,MetarLogicWeatherSta,2013-03-25 05:57:00,
2013-03-25 02:02:00,28.8,22.2,29.68,SE,135,0.0,-999.0,76,0.00,,,0.00,MetarLogicWeatherSta,2013-03-25 06:02:00,
2013-03-25 02:07:00,28.9,22.4,29.68,SSE,157,0.0,-999.0,76,0.00,,,0.00,MetarLogicWeatherSta,2013-03-25 06:07:00,
2013-03-25 02:12:00,28.6,22.1,29.67,SSE,157,0.0,-999.0,76,0.00,,,0.00,MetarLogicWeatherSta,2013-03-25 06:12:00,
2013-03-25 02:17:00,28.7,22.1,29.67,SSE,157,0.0,-999.0,76,0.00,,,0.00,MetarLogicWeatherSta,2013-03-25 06:17:00,
2013-03-25 02:22:00,28.5,22.0,29.67,SE,135,0.0,-999.0,76,0.00,,,0.00,MetarLogicWeatherSta,2013-03-25 06:22:00,
2013-03-25 02:27:00,28.5,21.9,29.67,SE,135,0.0,-999.0,76,0.00,,,0.00,MetarLogicWeatherSta,2013-03-25 06:27:00,
2013-03-25 02:32:00,28.2,21.9,29.67,SSE,157,0.0,-999.0,76,0.00,,,0.00,MetarLogicWeatherSta,2013-03-25 06:32:00,
2013-03-25 02:37:00,28.2,21.8,29.67,SSE,157,0.0,-999.0,76,0.00,,,0.00,MetarLogicWeatherSta,2013-03-25 06:37:00,
2013-03-25 02:42:00,28.1,21.7,29.67,SSE,157,0.0,-999.0,76,0.00,,,0.00,MetarLogicWeatherSta,2013-03-25 06:42:00,
2013-03-25 02:47:00,28.1,21.9,29.67,SSE,157,0.0,-999.0,77,0.00,,,0.00,MetarLogicWeatherSta,2013-03-25 06:47:00,
2013-03-25 02:52:00,27.8,21.7,29.67,South,180,0.0,-999.0,77,0.00,,,0.00,MetarLogicWeatherSta,2013-03-25 06:52:00,
2013-03-25 02:57:00,27.7,21.6,29.66,SSE,157,0.0,-999.0,77,0.00,,,0.00,MetarLogicWeatherSta,2013-03-25 06:57:00,
2013-03-25 03:02:00,27.4,21.5,29.66,SSE,157,0.0,-999.0,78,0.00,,,0.00,MetarLogicWeatherSta,2013-03-25 07:02:00,
2013-03-25 03:07:00,27.3,21.5,29.65,SSE,157,0.0,-999.0,78,0.00,,,0.00,MetarLogicWeatherSta,2013-03-25 07:07:00,
2013-03-25 03:13:00,27.4,21.8,29.65,SSE,157,0.0,-999.0,79,0.00,,,0.00,MetarLogicWeatherSta,2013-03-25 07:13:00,
2013-03-25 03:18:00,27.5,22.2,29.65,SSE,157,0.0,-999.0,80,0.00,,,0.00,MetarLogicWeatherSta,2013-03-25 07:18:00,
2013-03-25 03:23:00,27.8,22.4,29.65,South,169,0.0,0.0,79,0.00,,,0.00,MetarLogicWeatherSta,2013-03-25 07:23:00,
2013-03-25 03:28:00,28.0,22.6,29.65,SE,135,0.0,-999.0,80,0.00,,,0.00,MetarLogicWeatherSta,2013-03-25 07:28:00,
2013-03-25 03:33:00,28.2,22.9,29.65,SSE,166,0.0,1.0,80,0.00,,,0.00,MetarLogicWeatherSta,2013-03-25 07:33:00,
2013-03-25 03:38:00,28.6,23.0,29.65,SSE,157,0.0,-999.0,79,0.00,,,0.00,MetarLogicWeatherSta,2013-03-25 07:38:00,
2013-03-25 03:43:00,28.3,22.9,29.65,SE,135,0.0,-999.0,79,0.00,,,0.00,MetarLogicWeatherSta,2013-03-25 07:43:00,
2013-03-25 03:48:00,28.5,23.0,29.64,SE,135,0.0,-999.0,79,0.00,,,0.00,MetarLogicWeatherSta,2013-03-25 07:48:00,
2013-03-25 03:53:00,28.6,23.1,29.64,SSE,157,0.0,-999.0,79,0.00,,,0.00,MetarLogicWeatherSta,2013-03-25 07:53:00,
2013-03-25 03:58:00,28.5,23.0,29.64,SSE,157,0.0,-999.0,79,0.00,,,0.00,MetarLogicWeatherSta,2013-03-25 07:58:00,
2013-03-25 04:03:00,28.6,22.9,29.64,SE,135,0.0,-999.0,79,0.00,,,0.00,MetarLogicWeatherSta,2013-03-25 08:03:00,
2013-03-25 04:08:00,28.7,22.7,29.64,SSE,157,0.0,-999.0,78,0.00,,,0.00,MetarLogicWeatherSta,2013-03-25 08:08:00,
2013-03-25 04:13:00,28.5,22.7,29.64,SSE,157,0.0,-999.0,78,0.00,,,0.00,MetarLogicWeatherSta,2013-03-25 08:13:00,
2013-03-25 04:18:00,28.5,22.9,29.64,SE,135,0.0,-999.0,79,0.00,,,0.00,MetarLogicWeatherSta,2013-03-25 08:18:00,
2013-03-25 04:23:00,28.4,22.8,29.63,East,90,1.0,-999.0,79,0.00,,,0.00,MetarLogicWeatherSta,2013-03-25 08:23:00,
2013-03-25 04:28:00,28.7,23.0,29.63,SE,135,0.0,-999.0,79,0.00,,,0.00,MetarLogicWeatherSta,2013-03-25 08:28:00,
2013-03-25 04:33:00,28.9,23.0,29.63,SE,135,0.0,-999.0,78,0.00,,,0.00,MetarLogicWeatherSta,2013-03-25 08:33:00,
2013-03-25 04:38:00,28.9,23.0,29.63,East,90,0.0,-999.0,78,0.00,,,0.00,MetarLogicWeatherSta,2013-03-25 08:38:00,
2013-03-25 04:43:00,28.9,22.9,29.63,East,90,0.0,-999.0,78,0.00,,,0.00,MetarLogicWeatherSta,2013-03-25 08:43:00,
2013-03-25 04:48:00,28.9,22.9,29.63,SSE,157,0.0,-999.0,78,0.00,,,0.00,MetarLogicWeatherSta,2013-03-25 08:48:00,
2013-03-25 04:53:00,29.2,23.1,29.63,ESE,112,1.0,-999.0,77,0.00,,,0.00,MetarLogicWeatherSta,2013-03-25 08:53:00,
2013-03-25 04:58:00,29.2,23.1,29.63,SE,135,0.0,-999.0,77,0.00,,,0.00,MetarLogicWeatherSta,2013-03-25 08:58:00,
2013-03-25 05:03:00,29.2,23.0,29.64,SSE,157,0.0,-999.0,77,0.00,,,0.00,MetarLogicWeatherSta,2013-03-25 09:03:00,
2013-03-25 05:08:00,29.3,23.1,29.64,SE,135,0.0,-999.0,77,0.00,,,0.00,MetarLogicWeatherSta,2013-03-25 09:08:00,
2013-03-25 05:13:00,29.5,23.2,29.64,SE,135,0.0,-999.0,77,0.00,,,0.00,MetarLogicWeatherSta,2013-03-25 09:13:00,
2013-03-25 05:18:00,29.5,23.0,29.64,SSE,157,0.0,-999.0,76,0.00,,,0.00,MetarLogicWeatherSta,2013-03-25 09:18:00,
2013-03-25 05:23:00,29.4,23.0,29.64,SSE,157,0.0,-999.0,77,0.00,,,0.00,MetarLogicWeatherSta,2013-03-25 09:23:00,
2013-03-25 05:28:00,29.3,23.0,29.64,SE,135,0.0,-999.0,77,0.00,,,0.00,MetarLogicWeatherSta,2013-03-25 09:28:00,
2013-03-25 05:33:00,29.5,23.0,29.64,SE,135,0.0,-999.0,76,0.00,,,0.00,MetarLogicWeatherSta,2013-03-25 09:33:00,
2013-03-25 05:38:00,29.4,22.9,29.64,SE,135,0.0,-999.0,76,0.00,,,0.00,MetarLogicWeatherSta,2013-03-25 09:38:00,
2013-03-25 05:43:00,29.4,23.1,29.64,SE,135,0.0,-999.0,77,0.00,,,0.00,MetarLogicWeatherSta,2013-03-25 09:43:00,
2013-03-25 05:48:00,29.2,22.7,29.64,SE,135,0.0,-999.0,76,0.00,,,0.00,MetarLogicWeatherSta,2013-03-25 09:48:00,
2013-03-25 05:53:00,29.1,22.6,29.64,SSE,157,0.0,-999.0,76,0.00,,,0.00,MetarLogicWeatherSta,2013-03-25 09:53:00,
2013-03-25 05:58:00,29.0,22.4,29.65,SSE,157,0.0,-999.0,76,0.00,,,0.00,MetarLogicWeatherSta,2013-03-25 09:58:00,
2013-03-25 06:03:00,29.0,22.6,29.65,SSE,157,0.0,-999.0,77,0.00,,,0.00,MetarLogicWeatherSta,2013-03-25 10:03:00,
2013-03-25 06:09:00,28.7,22.3,29.64,SSE,166,0.0,0.0,76,0.00,,,0.00,MetarLogicWeatherSta,2013-03-25 10:09:00,
2013-03-25 06:14:00,28.6,22.5,29.65,South,180,0.0,-999.0,77,0.00,,,0.00,MetarLogicWeatherSta,2013-03-25 10:14:00,
2013-03-25 06:19:00,28.6,22.5,29.65,SSE,157,0.0,-999.0,77,0.00,,,0.00,MetarLogicWeatherSta,2013-03-25 10:19:00,
2013-03-25 06:24:00,28.6,22.6,29.65,SE,135,0.0,-999.0,78,0.00,,,0.00,MetarLogicWeatherSta,2013-03-25 10:24:00,
2013-03-25 06:29:00,28.5,22.4,29.65,East,90,0.0,-999.0,77,0.00,,,0.00,MetarLogicWeatherSta,2013-03-25 10:29:00,
2013-03-25 06:34:00,28.7,22.7,29.65,SE,135,0.0,-999.0,78,0.00,,,0.00,MetarLogicWeatherSta,2013-03-25 10:34:00,
2013-03-25 06:39:00,28.7,22.6,29.65,SE,135,0.0,-999.0,77,0.00,,,0.00,MetarLogicWeatherSta,2013-03-25 10:39:00,
2013-03-25 06:44:00,28.9,22.7,29.65,ENE,67,1.0,-999.0,77,0.00,,,0.00,MetarLogicWeatherSta,2013-03-25 10:44:00,
2013-03-25 06:49:00,28.8,22.8,29.65,SE,135,0.0,-999.0,78,0.00,,,0.00,MetarLogicWeatherSta,2013-03-25 10:49:00,
2013-03-25 06:54:00,28.7,22.5,29.65,SE,135,0.0,-999.0,77,0.00,,,0.00,MetarLogicWeatherSta,2013-03-25 10:54:00,
2013-03-25 06:59:00,28.9,22.9,29.65,SE,135,0.0,-999.0,77,0.00,,,0.00,MetarLogicWeatherSta,2013-03-25 10:59:00,
2013-03-25 07:04:00,28.9,22.7,29.65,ESE,112,0.0,-999.0,77,0.00,,,0.00,MetarLogicWeatherSta,2013-03-25 11:04:00,
2013-03-25 07:09:00,28.9,22.7,29.65,ESE,112,0.0,-999.0,77,0.00,,,0.00,MetarLogicWeatherSta,2013-03-25 11:09:00,
2013-03-25 07:14:00,28.9,22.7,29.65,SE,135,0.0,-999.0,77,0.00,,,0.00,MetarLogicWeatherSta,2013-03-25 11:14:00,
2013-03-25 07:19:00,28.8,22.7,29.65,ESE,112,1.0,-999.0,77,0.00,,,0.00,MetarLogicWeatherSta,2013-03-25 11:19:00,
2013-03-25 07:24:00,28.8,22.4,29.65,SE,135,0.0,-999.0,76,0.00,,,0.00,MetarLogicWeatherSta,2013-03-25 11:24:00,
2013-03-25 07:29:00,28.9,22.4,29.65,ESE,112,0.0,-999.0,76,0.00,,,0.00,MetarLogicWeatherSta,2013-03-25 11:29:00,
2013-03-25 07:34:00,28.8,22.7,29.65,NE,45,1.0,-999.0,77,0.00,,,0.00,MetarLogicWeatherSta,2013-03-25 11:34:00,
2013-03-25 07:39:00,28.9,22.8,29.65,SE,135,0.0,-999.0,77,0.00,,,0.00,MetarLogicWeatherSta,2013-03-25 11:39:00,
2013-03-25 07:44:00,28.9,22.6,29.65,ESE,112,0.0,-999.0,77,0.00,,,0.00,MetarLogicWeatherSta,2013-03-25 11:44:00,
2013-03-25 07:49:00,28.7,22.6,29.64,East,90,0.0,-999.0,77,0.00,,,0.00,MetarLogicWeatherSta,2013-03-25 11:49:00,
2013-03-25 07:54:00,29.0,22.9,29.64,SSE,157,0.0,-999.0,77,0.00,,,0.00,MetarLogicWeatherSta,2013-03-25 11:54:00,
2013-03-25 07:59:00,29.0,22.7,29.64,SSE,157,0.0,-999.0,77,0.00,,,0.00,MetarLogicWeatherSta,2013-03-25 11:59:00,
2013-03-25 08:04:00,28.8,22.6,29.65,SSE,157,0.0,-999.0,77,0.00,,,0.00,MetarLogicWeatherSta,2013-03-25 12:04:00,
2013-03-25 08:09:00,29.1,22.9,29.65,SSE,157,0.0,-999.0,77,0.00,,,0.00,MetarLogicWeatherSta,2013-03-25 12:09:00,
2013-03-25 08:14:00,29.2,23.0,29.64,South,180,0.0,-999.0,77,0.00,,,0.00,MetarLogicWeatherSta,2013-03-25 12:14:00,
2013-03-25 08:19:00,29.4,23.1,29.64,SSE,157,0.0,-999.0,77,0.00,,,0.00,MetarLogicWeatherSta,2013-03-25 12:19:00,
2013-03-25 08:24:00,29.5,23.4,29.64,South,180,0.0,-999.0,77,0.00,,,0.00,MetarLogicWeatherSta,2013-03-25 12:24:00,
2013-03-25 08:29:00,29.5,23.2,29.64,ENE,67,3.0,-999.0,77,0.00,,,0.00,MetarLogicWeatherSta,2013-03-25 12:29:00,
2013-03-25 08:34:00,29.5,23.3,29.64,SSW,202,0.0,-999.0,77,0.00,,,0.00,MetarLogicWeatherSta,2013-03-25 12:34:00,
2013-03-25 08:39:00,29.7,23.3,29.64,ESE,112,0.0,-999.0,76,0.00,,,0.00,MetarLogicWeatherSta,2013-03-25 12:39:00,
2013-03-25 08:44:00,29.9,23.5,29.64,SSE,157,0.2,3.0,76,0.00,,,0.00,MetarLogicWeatherSta,2013-03-25 12:44:00,
2013-03-25 08:49:00,30.2,23.9,29.64,NNE,22,1.0,-999.0,77,0.00,,,0.00,MetarLogicWeatherSta,2013-03-25 12:49:00,
2013-03-25 08:54:00,30.5,23.6,29.63,SE,135,0.0,-999.0,75,0.00,,,0.00,MetarLogicWeatherSta,2013-03-25 12:54:00,
2013-03-25 08:59:00,30.8,24.0,29.64,SE,135,1.0,-999.0,75,0.00,,,0.00,MetarLogicWeatherSta,2013-03-25 12:59:00,
2013-03-25 09:04:00,31.1,24.0,29.64,ENE,67,0.0,-999.0,74,0.00,,,0.00,MetarLogicWeatherSta,2013-03-25 13:04:00,
2013-03-25 09:11:00,31.3,23.8,29.63,NE,45,1.0,-999.0,73,0.00,,,0.00,MetarLogicWeatherSta,2013-03-25 13:11:00,
2013-03-25 09:16:00,31.8,24.5,29.63,NE,45,7.0,-999.0,74,0.00,,,0.00,MetarLogicWeatherSta,2013-03-25 13:16:00,
2013-03-25 09:21:00,32.3,24.6,29.63,ENE,67,1.0,-999.0,72,0.00,,,0.00,MetarLogicWeatherSta,2013-03-25 13:21:00,
2013-03-25 09:26:00,32.5,24.5,29.63,NE,45,4.0,-999.0,72,0.00,,,0.00,MetarLogicWeatherSta,2013-03-25 13:26:00,
2013-03-25 09:31:00,32.7,24.6,29.63,NE,45,3.0,-999.0,71,0.00,,,0.00,MetarLogicWeatherSta,2013-03-25 13:31:00,
2013-03-25 09:36:00,32.9,25.1,29.63,NE,45,1.0,-999.0,72,0.00,,,0.00,MetarLogicWeatherSta,2013-03-25 13:36:00,
2013-03-25 09:41:00,33.3,25.0,29.63,ESE,112,0.0,-999.0,71,0.00,,,0.00,MetarLogicWeatherSta,2013-03-25 13:41:00,
2013-03-25 09:46:00,33.9,25.3,29.63,NE,45,3.0,-999.0,70,0.00,,,0.00,MetarLogicWeatherSta,2013-03-25 13:46:00,
2013-03-25 09:52:00,34.0,25.5,29.63,ESE,110,0.7,6.0,70,0.00,,,0.00,MetarLogicWeatherSta,2013-03-25 13:52:00,
2013-03-25 09:57:00,35.2,26.1,29.63,East,90,0.0,-999.0,69,0.00,,,0.00,MetarLogicWeatherSta,2013-03-25 13:57:00,
2013-03-25 10:02:00,35.0,25.8,29.63,North,0,1.0,-999.0,68,0.00,,,0.00,MetarLogicWeatherSta,2013-03-25 14:02:00,
2013-03-25 10:07:00,35.0,25.5,29.63,NE,45,1.0,-999.0,68,0.00,,,0.00,MetarLogicWeatherSta,2013-03-25 14:07:00,
2013-03-25 10:12:00,34.8,25.3,29.63,SE,135,0.0,-999.0,68,0.00,,,0.00,MetarLogicWeatherSta,2013-03-25 14:12:00,
2013-03-25 10:17:00,34.9,25.9,29.63,ENE,67,6.0,-999.0,69,0.00,,,0.00,MetarLogicWeatherSta,2013-03-25 14:17:00,
2013-03-25 10:22:00,35.1,25.6,29.63,NNE,22,0.0,-999.0,68,0.00,,,0.00,MetarLogicWeatherSta,2013-03-25 14:22:00,
2013-03-25 10:27:00,34.9,25.4,29.62,NE,45,1.0,-999.0,68,0.00,,,0.00,MetarLogicWeatherSta,2013-03-25 14:27:00,
2013-03-25 10:32:00,35.1,25.5,29.62,NNE,22,1.0,-999.0,67,0.00,,,0.00,MetarLogicWeatherSta,2013-03-25 14:32:00,
2013-03-25 10:37:00,35.8,26.6,29.62,ESE,112,0.0,-999.0,68,0.00,,,0.00,MetarLogicWeatherSta,2013-03-25 14:37:00,
2013-03-25 10:42:00,36.0,26.2,29.62,ENE,67,6.0,-999.0,67,0.00,,,0.00,MetarLogicWeatherSta,2013-03-25 14:42:00,
2013-03-25 10:47:00,36.2,26.2,29.62,ESE,112,0.0,-999.0,66,0.00,,,0.00,MetarLogicWeatherSta,2013-03-25 14:47:00,
2013-03-25 10:52:00,36.1,25.9,29.62,NE,45,3.0,-999.0,66,0.00,,,0.00,MetarLogicWeatherSta,2013-03-25 14:52:00,
2013-03-25 10:57:00,35.9,25.6,29.62,NE,45,3.0,-999.0,65,0.00,,,0.00,MetarLogicWeatherSta,2013-03-25 14:57:00,
2013-03-25 11:02:00,35.7,25.8,29.62,NE,45,4.0,-999.0,67,0.00,,,0.00,MetarLogicWeatherSta,2013-03-25 15:02:00,
2013-03-25 11:07:00,35.8,25.8,29.62,East,90,6.0,-999.0,66,0.00,,,0.00,MetarLogicWeatherSta,2013-03-25 15:07:00,
2013-03-25 11:12:00,36.0,25.9,29.62,NNE,22,1.0,-999.0,66,0.00,,,0.00,MetarLogicWeatherSta,2013-03-25 15:12:00,
2013-03-25 11:17:00,36.3,26.0,29.61,South,180,0.0,-999.0,65,0.00,,,0.00,MetarLogicWeatherSta,2013-03-25 15:17:00,
2013-03-25 11:22:00,36.8,26.6,29.61,East,90,1.0,-999.0,66,0.00,,,0.00,MetarLogicWeatherSta,2013-03-25 15:22:00,
2013-03-25 11:27:00,36.9,26.5,29.61,ENE,67,3.0,-999.0,65,0.00,,,0.00,MetarLogicWeatherSta,2013-03-25 15:27:00,
2013-03-25 11:32:00,37.0,25.8,29.61,NNE,22,4.0,-999.0,63,0.00,,,0.00,MetarLogicWeatherSta,2013-03-25 15:32:00,
2013-03-25 11:38:00,36.7,25.6,29.61,NE,45,9.0,-999.0,63,0.00,,,0.00,MetarLogicWeatherSta,2013-03-25 15:38:00,
2013-03-25 11:45:00,37.2,26.3,29.61,ESE,112,3.0,-999.0,64,0.00,,,0.00,MetarLogicWeatherSta,2013-03-25 15:45:00,
2013-03-25 11:50:00,37.5,26.3,29.61,NE,45,6.0,-999.0,63,0.00,,,0.00,MetarLogicWeatherSta,2013-03-25 15:50:00,
2013-03-25 11:55:00,37.0,25.9,29.61,NE,45,4.0,-999.0,63,0.00,,,0.00,MetarLogicWeatherSta,2013-03-25 15:55:00,
2013-03-25 12:00:00,36.7,25.5,29.61,ESE,112,0.0,-999.0,63,0.00,,,0.00,MetarLogicWeatherSta,2013-03-25 16:00:00,
2013-03-25 12:05:00,36.5,25.8,29.61,ENE,67,1.0,-999.0,64,0.00,,,0.00,MetarLogicWeatherSta,2013-03-25 16:05:00,
2013-03-25 12:10:00,36.4,25.3,29.61,SSW,202,1.0,-999.0,63,0.00,,,0.00,MetarLogicWeatherSta,2013-03-25 16:10:00,
2013-03-25 12:15:00,36.5,25.5,29.61,NNE,22,4.0,-999.0,64,0.00,,,0.00,MetarLogicWeatherSta,2013-03-25 16:15:00,
2013-03-25 12:20:00,36.5,25.4,29.61,West,270,0.0,-999.0,63,0.00,,,0.00,MetarLogicWeatherSta,2013-03-25 16:20:00,
2013-03-25 12:25:00,36.3,25.1,29.61,ENE,67,1.0,-999.0,63,0.00,,,0.00,MetarLogicWeatherSta,2013-03-25 16:25:00,
2013-03-25 12:30:00,36.5,25.5,29.61,ENE,67,1.0,-999.0,64,0.00,,,0.00,MetarLogicWeatherSta,2013-03-25 16:30:00,
2013-03-25 12:35:00,36.6,25.4,29.61,SSE,157,0.0,-999.0,63,0.00,,,0.00,MetarLogicWeatherSta,2013-03-25 16:35:00,
2013-03-25 12:40:00,37.0,25.8,29.61,WSW,247,0.0,-999.0,63,0.00,,,0.00,MetarLogicWeatherSta,2013-03-25 16:40:00,
2013-03-25 12:45:00,37.1,25.4,29.61,ENE,67,7.0,-999.0,62,0.00,,,0.00,MetarLogicWeatherSta,2013-03-25 16:45:00,
2013-03-25 12:50:00,37.1,25.4,29.61,ENE,67,4.0,-999.0,62,0.00,,,0.00,MetarLogicWeatherSta,2013-03-25 16:50:00,
2013-03-25 12:55:00,37.0,25.6,29.61,East,90,0.0,-999.0,63,0.00,,,0.00,MetarLogicWeatherSta,2013-03-25 16:55:00,
2013-03-25 13:00:00,37.4,26.1,29.61,South,180,0.0,-999.0,63,0.00,,,0.00,MetarLogicWeatherSta,2013-03-25 17:00:00,
2013-03-25 13:05:00,37.7,25.9,29.61,West,270,1.0,-999.0,62,0.00,,,0.00,MetarLogicWeatherSta,2013-03-25 17:05:00,
2013-03-25 13:10:00,37.7,25.8,29.61,NE,45,4.0,-999.0,61,0.00,,,0.00,MetarLogicWeatherSta,2013-03-25 17:10:00,
2013-03-25 13:16:00,37.6,25.1,29.61,East,90,0.0,-999.0,60,0.00,,,0.00,MetarLogicWeatherSta,2013-03-25 17:16:00,
2013-03-25 13:21:00,37.7,25.5,29.61,ENE,67,4.0,-999.0,61,0.00,,,0.00,MetarLogicWeatherSta,2013-03-25 17:21:00,
2013-03-25 13:26:00,37.8,26.3,29.60,SSW,202,0.0,-999.0,62,0.00,,,0.00,MetarLogicWeatherSta,2013-03-25 17:26:00,
2013-03-25 13:31:00,38.3,25.4,29.60,SW,225,0.0,-999.0,59,0.00,,,0.00,MetarLogicWeatherSta,2013-03-25 17:31:00,
2013-03-25 13:36:00,38.2,25.5,29.60,NW,315,0.0,-999.0,60,0.00,,,0.00,MetarLogicWeatherSta,2013-03-25 17:36:00,
2013-03-25 13:41:00,38.3,25.8,29.60,East,90,0.0,-999.0,60,0.00,,,0.00,MetarLogicWeatherSta,2013-03-25 17:41:00,
2013-03-25 13:46:00,38.4,25.8,29.60,ENE,67,4.0,-999.0,60,0.00,,,0.00,MetarLogicWeatherSta,2013-03-25 17:46:00,
2013-03-25 13:51:00,38.6,25.5,29.60,South,180,0.0,-999.0,59,0.00,,,0.00,MetarLogicWeatherSta,2013-03-25 17:51:00,
2013-03-25 13:56:00,39.0,26.8,29.59,WSW,247,1.0,-999.0,61,0.00,,,0.00,MetarLogicWeatherSta,2013-03-25 17:56:00,
2013-03-25 14:01:00,39.3,26.5,29.60,WSW,247,3.0,-999.0,59,0.00,,,0.00,MetarLogicWeatherSta,2013-03-25 18:01:00,
2013-03-25 14:06:00,39.7,26.2,29.59,SW,225,0.0,-999.0,58,0.00,,,0.00,MetarLogicWeatherSta,2013-03-25 18:06:00,
2013-03-25 14:11:00,39.9,26.2,29.59,SSE,157,0.0,-999.0,57,0.00,,,0.00,MetarLogicWeatherSta,2013-03-25 18:11:00,
2013-03-25 14:19:00,39.9,26.1,29.59,WSW,249,2.5,7.0,57,0.00,,,0.00,MetarLogicWeatherSta,2013-03-25 18:19:00,
2013-03-25 14:24:00,39.9,26.8,29.59,South,180,0.0,-999.0,59,0.00,,,0.00,MetarLogicWeatherSta,2013-03-25 18:24:00,
2013-03-25 14:29:00,40.3,26.6,29.59,South,180,0.0,-999.0,57,0.00,,,0.00,MetarLogicWeatherSta,2013-03-25 18:29:00,
2013-03-25 14:34:00,40.4,26.1,29.59,SSW,202,0.0,-999.0,56,0.00,,,0.00,MetarLogicWeatherSta,2013-03-25 18:34:00,
2013-03-25 14:39:00,40.5,26.4,29.59,NNE,22,0.0,-999.0,56,0.00,,,0.00,MetarLogicWeatherSta,2013-03-25 18:39:00,
2013-03-25 14:44:00,40.5,26.5,29.59,SSW,202,0.0,-999.0,57,0.00,,,0.00,MetarLogicWeatherSta,2013-03-25 18:44:00,
2013-03-25 14:49:00,40.8,26.8,29.59,NNE,22,1.0,-999.0,57,0.00,,,0.00,MetarLogicWeatherSta,2013-03-25 18:49:00,
2013-03-25 14:55:00,40.9,27.3,29.59,WSW,247,1.0,-999.0,58,0.00,,,0.00,MetarLogicWeatherSta,2013-03-25 18:55:00,
2013-03-25 15:00:00,40.7,28.6,29.59,NNE,22,1.0,-999.0,61,0.00,,,0.00,MetarLogicWeatherSta,2013-03-25 19:00:00,
2013-03-25 15:05:00,40.7,28.2,29.59,SSE,157,1.0,-999.0,60,0.00,,,0.00,MetarLogicWeatherSta,2013-03-25 19:05:00,
2013-03-25 15:10:00,40.8,28.0,29.59,WSW,247,4.0,-999.0,59,0.00,,,0.00,MetarLogicWeatherSta,2013-03-25 19:10:00,
2013-03-25 15:17:00,40.7,28.9,29.59,ENE,67,1.0,-999.0,62,0.00,,,0.00,MetarLogicWeatherSta,2013-03-25 19:17:00,
2013-03-25 15:22:00,40.6,28.5,29.59,SSE,157,0.0,-999.0,61,0.00,,,0.00,MetarLogicWeatherSta,2013-03-25 19:22:00,
2013-03-25 15:27:00,40.3,27.7,29.59,WSW,247,6.0,-999.0,60,0.00,,,0.00,MetarLogicWeatherSta,2013-03-25 19:27:00,
2013-03-25 15:32:00,40.1,28.1,29.59,SW,225,1.0,-999.0,61,0.00,,,0.00,MetarLogicWeatherSta,2013-03-25 19:32:00,
2013-03-25 15:37:00,39.8,28.8,29.59,SW,225,3.0,-999.0,64,0.00,,,0.00,MetarLogicWeatherSta,2013-03-25 19:37:00,
2013-03-25 15:42:00,39.8,28.4,29.59,West,270,3.0,-999.0,63,0.00,,,0.00,MetarLogicWeatherSta,2013-03-25 19:42:00,
2013-03-25 15:47:00,39.7,28.2,29.59,WSW,247,3.0,-999.0,63,0.00,,,0.00,MetarLogicWeatherSta,2013-03-25 19:47:00,
2013-03-25 15:52:00,39.6,28.3,29.59,WNW,292,1.0,-999.0,63,0.00,,,0.00,MetarLogicWeatherSta,2013-03-25 19:52:00,
2013-03-25 15:58:00,39.3,28.2,29.60,South,180,1.0,-999.0,64,0.00,,,0.00,MetarLogicWeatherSta,2013-03-25 19:58:00,
2013-03-25 16:03:00,38.9,28.0,29.60,WSW,247,4.0,-999.0,64,0.00,,,0.00,MetarLogicWeatherSta,2013-03-25 20:03:00,
2013-03-25 16:08:00,38.6,27.1,29.59,West,270,4.0,-999.0,63,0.00,,,0.00,MetarLogicWeatherSta,2013-03-25 20:08:00,
2013-03-25 16:13:00,38.4,27.2,29.60,SW,225,3.0,-999.0,63,0.00,,,0.00,MetarLogicWeatherSta,2013-03-25 20:13:00,
2013-03-25 16:18:00,38.2,26.5,29.60,SSE,157,0.0,-999.0,62,0.00,,,0.00,MetarLogicWeatherSta,2013-03-25 20:18:00,
2013-03-25 16:23:00,38.4,27.0,29.60,SSE,163,1.0,6.0,63,0.00,,,0.00,MetarLogicWeatherSta,2013-03-25 20:23:00,
2013-03-25 16:28:00,38.7,26.6,29.60,WSW,247,1.0,-999.0,61,0.00,,,0.00,MetarLogicWeatherSta,2013-03-25 20:28:00,
2013-03-25 16:33:00,38.8,26.6,29.60,West,270,3.0,-999.0,61,0.00,,,0.00,MetarLogicWeatherSta,2013-03-25 20:33:00,
2013-03-25 16:38:00,38.6,26.8,29.61,SW,225,1.0,-999.0,62,0.00,,,0.00,MetarLogicWeatherSta,2013-03-25 20:38:00,
2013-03-25 16:43:00,38.9,26.8,29.60,SSE,157,0.0,-999.0,61,0.00,,,0.00,MetarLogicWeatherSta,2013-03-25 20:43:00,
2013-03-25 16:48:00,39.0,26.1,29.61,WSW,247,1.0,-999.0,59,0.00,,,0.00,MetarLogicWeatherSta,2013-03-25 20:48:00,
2013-03-25 16:53:00,38.8,25.5,29.61,WSW,247,1.0,-999.0,58,0.00,,,0.00,MetarLogicWeatherSta,2013-03-25 20:53:00,
2013-03-25 16:58:00,38.4,25.3,29.61,West,270,6.0,-999.0,59,0.00,,,0.00,MetarLogicWeatherSta,2013-03-25 20:58:00,
2013-03-25 17:03:00,38.1,25.8,29.61,South,180,0.0,-999.0,60,0.00,,,0.00,MetarLogicWeatherSta,2013-03-25 21:03:00,
2013-03-25 17:08:00,38.0,25.8,29.61,WSW,250,1.6,6.0,61,0.00,,,0.00,MetarLogicWeatherSta,2013-03-25 21:08:00,
2013-03-25 17:13:00,37.8,26.1,29.61,ESE,112,3.0,-999.0,62,0.00,,,0.00,MetarLogicWeatherSta,2013-03-25 21:13:00,
2013-03-25 17:18:00,37.8,26.4,29.61,NE,45,3.0,-999.0,63,0.00,,,0.00,MetarLogicWeatherSta,2013-03-25 21:18:00,
2013-03-25 17:23:00,37.5,26.6,29.61,South,180,0.0,-999.0,64,0.00,,,0.00,MetarLogicWeatherSta,2013-03-25 21:23:00,
2013-03-25 17:32:00,37.4,27.1,29.61,ENE,67,1.0,-999.0,66,0.00,,,0.00,MetarLogicWeatherSta,2013-03-25 21:32:00,
2013-03-25 17:37:00,37.2,26.9,29.62,SSE,157,0.0,-999.0,66,0.00,,,0.00,MetarLogicWeatherSta,2013-03-25 21:37:00,
2013-03-25 17:42:00,37.2,27.0,29.62,SE,135,0.0,-999.0,66,0.00,,,0.00,MetarLogicWeatherSta,2013-03-25 21:42:00,
2013-03-25 17:47:00,37.1,27.1,29.62,North,0,0.0,-999.0,66,0.00,,,0.00,MetarLogicWeatherSta,2013-03-25 21:47:00,
2013-03-25 17:53:00,37.1,27.4,29.63,SSW,201,0.3,6.0,67,0.00,,,0.00,MetarLogicWeatherSta,2013-03-25 21:53:00,
2013-03-25 17:58:00,36.8,27.2,29.63,SE,135,0.0,-999.0,67,0.00,,,0.00,MetarLogicWeatherSta,2013-03-25 21:58:00,
2013-03-25 18:03:00,36.8,27.3,29.63,South,180,0.0,-999.0,68,0.00,,,0.00,MetarLogicWeatherSta,2013-03-25 22:03:00,
2013-03-25 18:10:00,36.7,27.3,29.63,SSW,203,0.6,6.0,68,0.00,,,0.00,MetarLogicWeatherSta,2013-03-25 22:10:00,
2013-03-25 18:16:00,36.4,26.9,29.64,NW,315,1.0,-999.0,68,0.00,,,0.00,MetarLogicWeatherSta,2013-03-25 22:16:00,
2013-03-25 18:21:00,36.4,27.2,29.64,NNW,337,4.0,-999.0,68,0.00,,,0.00,MetarLogicWeatherSta,2013-03-25 22:21:00,
2013-03-25 18:26:00,36.3,27.2,29.64,SSE,157,0.0,-999.0,69,0.00,,,0.00,MetarLogicWeatherSta,2013-03-25 22:26:00,
2013-03-25 18:31:00,36.2,27.3,29.64,South,180,0.0,-999.0,69,0.00,,,0.00,MetarLogicWeatherSta,2013-03-25 22:31:00,
2013-03-25 18:36:00,36.0,27.2,29.65,South,180,0.0,-999.0,70,0.00,,,0.00,MetarLogicWeatherSta,2013-03-25 22:36:00,
2013-03-25 18:41:00,35.8,26.9,29.65,WSW,247,4.0,-999.0,69,0.00,,,0.00,MetarLogicWeatherSta,2013-03-25 22:41:00,
2013-03-25 18:46:00,35.6,26.7,29.65,ESE,112,0.0,-999.0,69,0.00,,,0.00,MetarLogicWeatherSta,2013-03-25 22:46:00,
2013-03-25 18:52:00,35.6,26.6,29.65,SSW,202,1.0,-999.0,69,0.00,,,0.00,MetarLogicWeatherSta,2013-03-25 22:52:00,
2013-03-25 18:57:00,35.2,26.2,29.65,SE,135,0.0,-999.0,69,0.00,,,0.00,MetarLogicWeatherSta,2013-03-25 22:57:00,
2013-03-25 19:02:00,34.9,26.0,29.65,WSW,247,0.0,-999.0,69,0.00,,,0.00,MetarLogicWeatherSta,2013-03-25 23:02:00,
2013-03-25 19:07:00,34.8,26.0,29.66,SW,225,4.0,-999.0,70,0.00,,,0.00,MetarLogicWeatherSta,2013-03-25 23:07:00,
2013-03-25 19:12:00,34.6,25.8,29.66,South,180,0.0,-999.0,69,0.00,,,0.00,MetarLogicWeatherSta,2013-03-25 23:12:00,
2013-03-25 19:17:00,34.5,25.8,29.67,West,270,4.0,-999.0,70,0.00,,,0.00,MetarLogicWeatherSta,2013-03-25 23:17:00,
2013-03-25 19:22:00,34.3,25.7,29.67,ESE,112,0.0,-999.0,70,0.00,,,0.00,MetarLogicWeatherSta,2013-03-25 23:22:00,
2013-03-25 19:27:00,34.3,25.6,29.67,SSE,157,0.0,-999.0,70,0.00,,,0.00,MetarLogicWeatherSta,2013-03-25 23:27:00,
2013-03-25 19:32:00,33.9,25.8,29.67,SSE,157,0.0,-999.0,72,0.00,,,0.00,MetarLogicWeatherSta,2013-03-25 23:32:00,
2013-03-25 19:37:00,34.0,25.6,29.67,SSE,157,0.0,-999.0,71,0.00,,,0.00,MetarLogicWeatherSta,2013-03-25 23:37:00,
2013-03-25 19:45:00,33.6,25.5,29.67,South,188,0.0,4.0,72,0.00,,,0.00,MetarLogicWeatherSta,2013-03-25 23:45:00,
2013-03-25 19:50:00,33.5,25.3,29.67,South,180,0.0,-999.0,71,0.00,,,0.00,MetarLogicWeatherSta,2013-03-25 23:50:00,
2013-03-25 19:56:00,33.3,25.5,29.67,SSE,157,0.0,-999.0,72,0.00,,,0.00,MetarLogicWeatherSta,2013-03-25 23:56:00,
2013-03-25 20:01:00,33.2,25.3,29.68,SSE,157,0.0,-999.0,72,0.00,,,0.00,MetarLogicWeatherSta,2013-03-26 00:01:00,
2013-03-25 20:06:00,33.1,25.2,29.68,South,180,0.0,-999.0,72,0.00,,,0.00,MetarLogicWeatherSta,2013-03-26 00:06:00,
2013-03-25 20:11:00,33.0,25.2,29.68,SSW,202,0.0,-999.0,72,0.00,,,0.00,MetarLogicWeatherSta,2013-03-26 00:11:00,
2013-03-25 20:16:00,32.7,25.1,29.68,SSE,157,0.0,-999.0,73,0.00,,,0.00,MetarLogicWeatherSta,2013-03-26 00:16:00,
2013-03-25 20:23:00,32.6,25.0,29.68,SSE,157,0.0,-999.0,73,0.00,,,0.00,MetarLogicWeatherSta,2013-03-26 00:23:00,
2013-03-25 20:28:00,32.3,24.7,29.68,SSE,157,0.0,-999.0,73,0.00,,,0.00,MetarLogicWeatherSta,2013-03-26 00:28:00,
2013-03-25 20:33:00,32.2,24.6,29.68,SSE,157,0.0,-999.0,73,0.00,,,0.00,MetarLogicWeatherSta,2013-03-26 00:33:00,
2013-03-25 20:38:00,31.7,24.3,29.69,SSE,157,0.0,-999.0,73,0.00,,,0.00,MetarLogicWeatherSta,2013-03-26 00:38:00,
2013-03-25 20:43:00,31.5,24.4,29.69,SSE,157,0.0,-999.0,74,0.00,,,0.00,MetarLogicWeatherSta,2013-03-26 00:43:00,
2013-03-25 20:48:00,31.4,24.4,29.69,SSE,157,0.0,-999.0,74,0.00,,,0.00,MetarLogicWeatherSta,2013-03-26 00:48:00,
2013-03-25 20:53:00,30.7,23.8,29.69,SSE,157,0.0,-999.0,75,0.00,,,0.00,MetarLogicWeatherSta,2013-03-26 00:53:00,
2013-03-25 20:59:00,30.6,23.7,29.69,SSE,157,0.0,-999.0,75,0.00,,,0.00,MetarLogicWeatherSta,2013-03-26 00:59:00,
2013-03-25 21:04:00,30.2,23.6,29.69,SSE,157,0.0,-999.0,76,0.00,,,0.00,MetarLogicWeatherSta,2013-03-26 01:04:00,
2013-03-25 21:09:00,30.0,23.6,29.69,SSE,157,0.0,-999.0,76,0.00,,,0.00,MetarLogicWeatherSta,2013-03-26 01:09:00,
2013-03-25 21:14:00,29.8,23.7,29.69,SSE,157,0.0,-999.0,77,0.00,,,0.00,MetarLogicWeatherSta,2013-03-26 01:14:00,
2013-03-25 21:19:00,29.6,23.5,29.69,SSE,157,0.0,-999.0,77,0.00,,,0.00,MetarLogicWeatherSta,2013-03-26 01:19:00,
2013-03-25 21:24:00,28.9,23.1,29.69,SSE,157,0.0,-999.0,78,0.00,,,0.00,MetarLogicWeatherSta,2013-03-26 01:24:00,
2013-03-25 21:29:00,28.8,23.4,29.69,SSE,157,0.0,-999.0,80,0.00,,,0.00,MetarLogicWeatherSta,2013-03-26 01:29:00,
2013-03-25 21:34:00,28.7,23.4,29.70,SSE,157,0.0,-999.0,80,0.00,,,0.00,MetarLogicWeatherSta,2013-03-26 01:34:00,
2013-03-25 21:39:00,28.5,23.3,29.70,SSE,157,0.0,-999.0,80,0.00,,,0.00,MetarLogicWeatherSta,2013-03-26 01:39:00,
2013-03-25 21:44:00,28.1,22.9,29.70,SSE,157,0.0,-999.0,80,0.00,,,0.00,MetarLogicWeatherSta,2013-03-26 01:44:00,
2013-03-25 21:49:00,28.1,23.0,29.70,SSE,157,0.0,-999.0,81,0.00,,,0.00,MetarLogicWeatherSta,2013-03-26 01:49:00,
2013-03-25 21:54:00,28.0,23.3,29.70,SSE,157,0.0,-999.0,82,0.00,,,0.00,MetarLogicWeatherSta,2013-03-26 01:54:00,
2013-03-25 21:59:00,27.8,23.0,29.70,SSE,157,0.0,-999.0,82,0.00,,,0.00,MetarLogicWeatherSta,2013-03-26 01:59:00,
2013-03-25 22:04:00,27.8,23.0,29.70,SSE,157,0.0,-999.0,81,0.00,,,0.00,MetarLogicWeatherSta,2013-03-26 02:04:00,
2013-03-25 22:09:00,27.4,22.8,29.70,SSE,157,0.0,-999.0,82,0.00,,,0.00,MetarLogicWeatherSta,2013-03-26 02:09:00,
2013-03-25 22:14:00,27.3,22.9,29.71,SSE,157,0.0,-999.0,83,0.00,,,0.00,MetarLogicWeatherSta,2013-03-26 02:14:00,
2013-03-25 22:19:00,27.2,22.9,29.71,SSE,157,0.0,-999.0,83,0.00,,,0.00,MetarLogicWeatherSta,2013-03-26 02:19:00,
2013-03-25 22:24:00,27.0,22.9,29.70,SSE,157,0.0,-999.0,84,0.00,,,0.00,MetarLogicWeatherSta,2013-03-26 02:24:00,
2013-03-25 22:29:00,26.9,22.8,29.71,SSE,157,0.0,-999.0,84,0.00,,,0.00,MetarLogicWeatherSta,2013-03-26 02:29:00,
2013-03-25 22:34:00,27.2,23.2,29.70,SSE,157,0.0,-999.0,84,0.00,,,0.00,MetarLogicWeatherSta,2013-03-26 02:34:00,
2013-03-25 22:39:00,27.0,23.1,29.70,SSE,157,0.0,-999.0,84,0.00,,,0.00,MetarLogicWeatherSta,2013-03-26 02:39:00,
2013-03-25 22:44:00,26.7,22.9,29.71,South,180,0.0,-999.0,85,0.00,,,0.00,MetarLogicWeatherSta,2013-03-26 02:44:00,
2013-03-25 22:49:00,26.8,23.0,29.71,SSE,157,0.0,-999.0,85,0.00,,,0.00,MetarLogicWeatherSta,2013-03-26 02:49:00,
2013-03-25 22:54:00,26.7,22.8,29.71,SSE,157,0.0,-999.0,85,0.00,,,0.00,MetarLogicWeatherSta,2013-03-26 02:54:00,
2013-03-25 22:59:00,26.5,22.7,29.71,SSE,157,0.0,-999.0,85,0.00,,,0.00,MetarLogicWeatherSta,2013-03-26 02:59:00,
2013-03-25 23:04:00,26.7,23.0,29.70,SSE,157,0.0,-999.0,85,0.00,,,0.00,MetarLogicWeatherSta,2013-03-26 03:04:00,
2013-03-25 23:09:00,26.5,23.0,29.71,SSE,157,0.0,-999.0,86,0.00,,,0.00,MetarLogicWeatherSta,2013-03-26 03:09:00,
2013-03-25 23:14:00,26.5,23.2,29.71,South,180,0.0,-999.0,86,0.00,,,0.00,MetarLogicWeatherSta,2013-03-26 03:14:00,
2013-03-25 23:19:00,26.5,23.4,29.71,SSE,157,0.0,-999.0,87,0.00,,,0.00,MetarLogicWeatherSta,2013-03-26 03:19:00,
2013-03-25 23:24:00,26.5,23.4,29.71,South,180,0.0,-999.0,87,0.00,,,0.00,MetarLogicWeatherSta,2013-03-26 03:24:00,
2013-03-25 23:29:00,26.7,23.6,29.71,South,180,0.0,-999.0,88,0.00,,,0.00,MetarLogicWeatherSta,2013-03-26 03:29:00,
2013-03-25 23:34:00,26.8,24.0,29.71,South,180,0.0,-999.0,88,0.00,,,0.00,MetarLogicWeatherSta,2013-03-26 03:34:00,
2013-03-25 23:39:00,27.0,24.2,29.71,South,180,0.0,-999.0,89,0.00,,,0.00,MetarLogicWeatherSta,2013-03-26 03:39:00,
2013-03-25 23:44:00,27.3,24.5,29.71,South,180,0.0,-999.0,89,0.00,,,0.00,MetarLogicWeatherSta,2013-03-26 03:44:00,
2013-03-25 23:49:00,27.7,25.1,29.71,SSE,157,0.0,-999.0,89,0.00,,,0.00,MetarLogicWeatherSta,2013-03-26 03:49:00,
2013-03-25 23:54:00,28.1,25.4,29.71,South,180,0.0,-999.0,89,0.00,,,0.00,MetarLogicWeatherSta,2013-03-26 03:54:00,
2013-03-25 23:59:00,28.1,25.3,29.71,South,180,0.0,-999.0,89,0.00,,,0.00,MetarLogicWeatherSta,2013-03-26 03:59:00,